Location: Ełk
(53.8214°N, 22.3622°E)
Time: 04:54:04
(UTC+01:00)

ISS - Visible Passes

Search period start: 24 November 2017 00:00
Search period end: 04 December 2017 00:00
Orbit: 402 x 407 km, 51.6° (Epoch: 24 November)

Date Brightness Start Highest point End Pass type
(mag) Time Alt. Az. Time Alt. Az. Time Alt. Az.
29 Nov -1.5 17:26:32 10° S 17:27:45 14° SSE 17:27:45 14° SSE visible
30 Nov -1.4 18:09:08 10° SW 18:10:15 18° SSW 18:10:15 18° SSW visible
01 Dec -2.3 17:17:10 10° SSW 17:19:52 24° SSE 17:20:01 24° SSE visible
02 Dec -1.7 16:25:28 10° S 16:27:40 17° SSE 16:29:44 11° ESE visible
02 Dec -2.1 18:00:27 10° WSW 18:02:23 29° SW 18:02:23 29° SW visible
03 Dec -2.8 17:08:15 10° SW 17:11:18 35° SSE 17:12:04 31° SE visible
03 Dec -0.5 18:44:16 10° W 18:44:42 13° WSW 18:44:42 13° WSW visible
